Starlink 1551

operational
NORAD ID: 46075 Int'l Des: 2020-055 Owner: SPXS Country: US Constellation: starlink
LEOCIRCULARSTARLINK_TYPE

关于 Starlink 1551

正在加载描述...

实时位置

正在加载3D地球...

即将过境

高度历史

Altitude vs Time

uPlot chart will show altitude changes over time

两行轨道根数

1 46075U 20055BA 26061.45563424 .00000650 00000-0 62553-4 0 9998
2 46075 53.0550 129.0948 0001504 90.0268 270.0893 15.06390263308218
Epoch: Mar 2, 2026 • Age: 28 hours

当前状态

高度 553.5 km
速度 7.58 km/s
星下点 -20.93°S, 105.07°E
发射日期 Aug 7, 2020
运行时间 5.5 years
类型 internet

技术详情

分类 Payload
质量 260.00 kg
干质量 248.00 kg
总质量 260.00 kg
长度 0.20 m
直径 2.80 m
跨度 9.00 m
形状 Box + pan
制造商 SPXS
平台类型 Starlink
阶段状态 In Orbit
所有者/国家 SPXS/US

大型星座

Loading constellations...